Return to main menu page
Advertisement


ISS - Orbit Data

View from orbit pole
View from above orbital plane

View from above satellite
View from above satellite

Ground track

Ground track

The orbit data is extracted from the following two-line orbital elements,

1 25544U 98067A   10040.84855435  .00019921  00000-0  12962-3 0  5549
2 25544 051.6459 164.4542 0010706 306.5970 196.8693 15.75874019643419

Epoch (UTC): 8:21:55 PM, Tuesday, February 09, 2010
Eccentricity: 0.0010706
Inclination: 051.6459°
Perigee Height: 335 km
Apogee Height: 349 km
Right Ascension of Ascending Node: 164.4542°
Argument of Perigee: 306.5970°
Revolutions per Day: 15.75874019
Mean Anomaly at Epoch: 196.8693°
Orbit Number at Epoch: 64341

The dashed part of the orbit path shows where the satellite is in the earth's shadow, and the full part is where it is sunlit.


Developed and maintained by Chris Peat, Heavens-Above GmbH
Please read the updated FAQ before sending e-mail.
GSOC Home Page